Location: Asheville, NC
(35.6000°N, 82.5500°W)
Time: 17:28:50
(UTC-04:00)

XW-2B - Pass Details

Date: 07 January 2018
Orbit: 511 x 528 km, 97.5° (Epoch: 21 July)

Event Time Altitude Azimuth Distance (km) Brightness Sun altitude
Rises 19:33:36 0° 243° (WSW) 2,656 ? -24.1°
Reaches altitude 10° 05:34:54 10° 66° (ENE) 1,752 ? -24.9°
Maximum altitude 05:36:36 13° 93° (E) 1,583 ? -24.6°
Drops below altitude 10° 05:38:18 10° 120° (ESE) 1,740 ? -24.2°
Sets 05:41:27 0° 150° (SSE) 2,616 ? -23.6°
